Regional Weather Roundup
Issued by NWS

Home | Current Version | Previous Version | Graphics & Text | Print | Product List | Glossary On
Versions: 1 2 3 4 5 6 7 8 9 10 11 12 13 14 15 16 17 18 19 20 21 22 23 24 25 26 27 28 29 30 31 32 33 34 35 36 37 38 39 40 41 42 43 44 45 46 47 48 49 50
000
ASUS43 KMKX 211300
RWRWI

WISCONSIN REGIONAL WEATHER ROUNDUP
NATIONAL WEATHER SERVICE MILWAUKEE/SULLIVAN WI
800 AM CDT TUE OCT 21 2014

NOTE: "FAIR" INDICATES FEW OR NO CLOUDS BELOW 12,000 FEET WITH NO
SIGNIFICANT WEATHER AND/OR OBSTRUCTIONS TO VISIBILITY.

WIZ001-002-006>008-014>016-023>028-211400-
NORTHWEST WISCONSIN

CITY           SKY/WX    TMP DP  RH WIND       PRES   REMARKS
SUPERIOR ARPT  CLOUDY    43  37  79 SE6       30.23R
ASHLAND        CLOUDY    42  34  73 NE7       30.25R
HAYWARD        CLOUDY    42  34  73 NE3       30.22R
SIREN          CLOUDY    43  37  81 E3        30.20R
CUMBERLAND     CLOUDY    41  34  75 E9        30.19S
RICE LAKE      CLOUDY    41  34  75 E5        30.21S
CHETEK         CLOUDY    41  35  78 NE3       30.21R
LADYSMITH      CLOUDY    42  35  76 NE7       30.22R
EAU CLAIRE     NOT AVBL
MENOMONIE      CLEAR     34  33  97 CALM      30.20R FOG
NEW RICHMOND   FAIR      32  32 100 CALM      30.19R
OSCEOLA        FOG       30  30 100 CALM      30.21S VSB 1/4
$$

WIZ003>005-009-010-017-018-211400-
NORTH CENTRAL WISCONSIN

CITY           SKY/WX    TMP DP  RH WIND       PRES   REMARKS
MANITOWISH WTR CLOUDY    36  35  94 NE6       30.21R WCI  32
ARBOR VITAE    CLOUDY    39  36  87 NE3       30.21R
WOODRUFF       CLOUDY    39  36  87 NE3       30.21R
RHINELANDER    CLOUDY    38  34  85 NE6       30.21R WCI  33
EAGLE RIVER    CLOUDY    37  35  93 NE9       30.20R WCI  30
LAND O LAKES   CLOUDY    37  34  91 NE3       30.22R
PHILLIPS       CLOUDY    38  34  84 NE6       30.20R WCI  34
TOMAHAWK       CLOUDY    39  33  80 CALM      30.20R
MEDFORD        CLOUDY    39  33  80 NE8       30.19R WCI  33
MERRILL        CLOUDY    40  35  81 N3        30.20R
$$

WIZ029-030-035-036-043>047-211400-
CENTRAL WISCONSIN

CITY           SKY/WX    TMP DP  RH WIND       PRES   REMARKS
WAUSAU         CLOUDY    41  34  76 NE6       30.19R
MOSINEE        CLOUDY    39  36  87 NE12      30.20R WCI  32
MARSHFIELD     MOCLDY    40  34  79 NE9       30.19R WCI  34
STEVENS POINT  CLOUDY    39  34  82 NE6       30.19R WCI  35
WAUPACA        CLOUDY    42  38  85 CALM      30.19R
WAUTOMA        PTCLDY    39  36  87 CALM      30.19R
WISC RAPIDS    CLOUDY    42  35  76 NE9       30.21R
CAMP DOUGLAS   NOT AVBL
$$

WIZ011>013-019>022-031-037>040-048>050-211400-
NORTHEAST WISCONSIN

CITY           SKY/WX    TMP DP  RH WIND       PRES   REMARKS
ANTIGO         CLOUDY    38  35  87 N10       30.19R WCI  31
SHAWANO        CLOUDY    44  36  71 N14       30.19R
OCONTO         CLOUDY    42  38  86 N5        30.18R
STURGEON BAY   CLOUDY    45  36  70 N10G20    30.17R
GREEN BAY      CLOUDY    43  37  79 N12       30.18R
MANITOWOC      NOT AVBL
APPLETON       MOCLDY    43  36  75 N10       30.18R
CLINTONVILLE   CLOUDY    43  34  70 NE7       30.19R
OSHKOSH        CLOUDY    44  37  76 N13       30.18R
$$

WIZ032>034-041-042-053>061-211400-
SOUTHWEST WISCONSIN

CITY           SKY/WX    TMP DP  RH WIND       PRES   REMARKS
LA CROSSE      CLEAR     38  36  92 CALM      30.21R
SPARTA         PTCLDY    29  28  99 CALM      30.21R
VIROQUA        CLEAR     38  38 100 NE7       30.18R WCI  33
BOSCOBEL       FOG       33  32  96 CALM      30.20R VSB 1/4
PRAIRIE DU CHI FOG       37  36  95 CALM      30.18R VSB 1/4
PLATTEVILLE    CLEAR     37  35  94 CALM      30.17R
$$

WIZ056-057-062-063-064-067-068-211400-
SOUTH CENTRAL WISCONSIN

CITY           SKY/WX    TMP DP  RH WIND       PRES   REMARKS
REEDSBURG      CLEAR     39  36  90 NE3       30.19R
BARABOO/DELLS  CLEAR     39  35  85 N3        30.18R
LONE ROCK      NOT AVBL
MINERAL POINT  CLEAR     39  37  93 N6        30.16R WCI  35
MADISON        PTCLDY    40  36  86 N7        30.18R
MIDDLETON      CLEAR     42  37  82 NE8       30.18R
WATERTOWN      CLOUDY    43  38  85 N8        30.16R
MONROE         MOCLDY    41  37  87 N7        30.15R
JANESVILLE     NOT AVBL
$$

WIZ051-052-058>065-066-070>072-211400-
SOUTHEAST WISCONSIN

CITY           SKY/WX    TMP DP  RH WIND       PRES   REMARKS
MILWAUKEE      MOCLDY    46  38  73 N12       30.14R
WAUKESHA       CLOUDY    43  37  81 N9        30.15R
MILWAUKEE/TIMM CLOUDY    45  37  76 N9        30.15R
RACINE         CLOUDY    46  39  76 NW10      30.15R
BURLINGTON     CLEAR     40  37  86 N6        30.14R
KENOSHA        MOCLDY    44  39  82 NW7       30.14R
FOND DU LAC    CLOUDY    45  36  70 N13G23    30.18R
SHEBOYGAN      CLOUDY    45  38  76 N10       30.15R
WEST BEND      CLOUDY    43  36  75 N8        30.15R
JUNEAU         CLOUDY    42  37  81 N7        30.18R
$$

LSZ147-162-211400-
LAKE SUPERIOR

STATION/POSITION TIME  TEMP    WIND        PRES    WAVE
                       AIR SEA DIR/SP/G            HT/PER
                 (UTC) (F)     (DEG/KT/KT) (MB)    (FT/S)
W MID LAKE BUOY  1150   41 46   60/ 10/ 14 1024.6R   3/ 6
DEVILS ISLAND    1200   43      80/ 17/ 19 1024.7R
PORT WING        1240   44      60/  6/  9 1024.0R
SAXON HARBOR     1200   44      70/  7/ 10 1023.7R
$$

LMZ867-665-643>646-211400-
LAKE MICHIGAN

STATION/POSITION TIME  TEMP    WIND        PRES    WAVE
                       AIR SEA DIR/SP/G            HT/PER
                 (UTC) (F)     (DEG/KT/KT) (MB)    (FT/S)
CHAMBERS ISLAND  1200   45     340/ 18/ 23 1021.0R
N MID LAKE BUOY  1150   46 51   10/ 19/ 23 1020.2R   4/ 5
NORTHPORT PIER   1200   45      20/ 15/ 21 1021.0R
SISTER BAY       1228          360/ 14/ 17   N/A
KEWAUNEE LAKESHO 1200   45     350/  6/ 10 1019.6R
SHEBOYGAN LAKESH 1200   46 50  350/ 17/ 19 1020.7R
PORT WASHINGTON  1200   46     330/  5/ 11 1020.7R
ATWATER BUOY     1200   48     350/ 17/ 19 1020.6R
MILWAUKEE LAKESH 1200   46     330/ 11/ 16   N/A
S MID LAKE BUOY  1150   50 54  340/ 21/ 23 1018.1R   6/ 7
KENOSHA   LAKESH 1200   46     340/ 10/ 13 1019.6R
$$

TC  - TEMPERATURE IN CELSIUS
VSB - VISIBILITY IN STATUTE MILES
WCI - WIND CHILL INDEX
HX  - HEAT INDEX



USA.gov is the U.S. government's official web portal to all federal, state and local government web resources and services.